Home > Time Zones > World Clock > Weather > Peru > Lima > Past weeks

Flag Weather past 2 weeks in Lima, Lima, Peru

Now
68 °F

Overcast.


Feels Like: 68 °F
Forecast: N/A
Wind: 9 mph from Northwest

Location: Lima-Callao / Aerop. Internacional Jorgechavez

Current Time: Nov 23, 2014 at 4:13:50 PM

Latest Report: Nov 23, 2014 at 3:00 PM


Visibility: N/A

Pressure: 29.89 "Hg

Humidity: 78%

Dew point: 61 °F

Location of LimaLocation

Historic Weather in Lima — Graph

°F

Lima temperature yesterday

Maximum temperature yesterday: 75 °F (at 12:00 PM)
Minimum temperature yesterday: 66 °F (at 12:00 AM)
Average temperature yesterday: 69 °F

Past Weeks' High & Low Weather Summary

 TemperatureHumidityPressure
High75 °F (Nov 22, 12:00 PM)94% (Nov 16, 5:00 AM)30.07 "Hg (Nov 16, 5:00 AM)
Low63 °F (Nov 9, 5:00 AM)61% (Nov 22, 12:00 PM)29.86 "Hg (Nov 8, 3:00 PM)
Average67 °F82%29.96 "Hg
* Reported Nov 8 3:00 PM — Nov 23 3:00 PM, Lima, Weather by CustomWeather, © 2014

Note: Actual official high and low records may vary slightly from our data, if they occured in-between our weather recording intervals... More about our weather records

Advertising

Lima weather history for previous 24 hours

 ConditionsComfort  
Time TempWeatherWind HumidityBarometerVisibility
3:00 PM
Nov 23
68 °FOvercast.9 mph78%29.89 "HgN/A
2:00 PM70 °FOvercast.8 mph78%29.92 "HgN/A
1:00 PM70 °FOvercast.7 mph78%29.95 "HgN/A
12:00 PM68 °FOvercast.6 mph83%29.95 "HgN/A
11:00 AM70 °FOvercast.7 mph73%29.95 "Hg10 mi
10:00 AM70 °FMore clouds than sun.5 mph73%29.95 "HgN/A
9:00 AM68 °FMore clouds than sun.3 mph78%29.95 "HgN/A
8:00 AM66 °FMore clouds than sun.3 mph83%29.95 "HgN/A
7:00 AM66 °FOvercast.2 mph83%29.95 "Hg4 mi
6:01 AM66 °FOvercast.5 mph83%29.92 "Hg4 mi
5:00 AM66 °FOvercast.7 mph83%29.92 "HgN/A
4:00 AM64 °FOvercast.9 mph88%29.89 "HgN/A
3:00 AM64 °FPassing clouds.6 mph88%29.89 "HgN/A
2:00 AM63 °FPassing clouds.7 mph88%29.92 "HgN/A
1:00 AM64 °FPassing clouds.7 mph88%29.92 "HgN/A
12:00 AM64 °FPassing clouds.8 mph88%29.95 "HgN/A
11:00 PM
Nov 22
66 °FPassing clouds.9 mph83%29.95 "HgN/A
10:00 PM66 °FPassing clouds.8 mph83%29.95 "HgN/A
9:00 PM66 °FPassing clouds.9 mph83%29.95 "HgN/A
8:00 PM66 °FPassing clouds.9 mph83%29.95 "HgN/A
7:00 PM66 °FPassing clouds.9 mph88%29.92 "HgN/A
6:00 PM68 °FPassing clouds.8 mph78%29.92 "HgN/A
5:00 PM72 °FPassing clouds.7 mph69%29.92 "HgN/A
4:00 PM73 °FPassing clouds.8 mph65%29.92 "HgN/A
Weather by CustomWeather, © 2014

See weather overviewHow to use our weather pages